Date String (YYYY-MM-DD hh:mm:ss) UTC,Instrument flags,absolute air pressure of the measurement (hPa),sample flow rate (lpm),inlet stack bypass flow (lpm),air temperature of the measurement (°C),ambient temperature measured by the external sensor (°C),aerosol sample conditioner tube jacket temperature (°C),OPC LED temperature (°C),internal box temperature (°C),relative humidity of the measurement (%),span deviation,mass concentration of particles derived from Lorenz-Mie calculation of OPC scattering (μg/m³),mass concentration of particles derived from Lorenz-Mie calculation of OPC scattering (μg/m³),mass concentration of particles derived from Lorenz-Mie calculation of OPC scattering (μg/m³)
DateTimeUTC,F1_M11,P_M11,Q1_M11,Q2_M11,T1_M11,T2_M11,T3_M11,T4_M11,T5_M11,U1_M11,ZSPAN_M11,X2_M11,X0_M11,X1_M11
2023-09-17 04:00:00,SystemResetWarning,0835.9,5.00,000.00,028.3,027.0,000.0,036.6,030.0,20.0,0000.0,0005.00,0008.92,0004.44
2023-09-17 04:01:00,SystemResetWarning,0835.9,5.00,000.00,028.4,027.1,000.0,036.6,030.0,20.1,0000.0,0005.02,0008.93,0004.44
2023-09-17 04:02:00,SystemResetWarning,0835.9,5.00,000.00,028.4,027.1,000.0,036.7,030.0,20.3,0000.0,0005.04,0009.11,0004.45
2023-09-17 04:03:00,SystemResetWarning,0835.9,5.00,000.00,028.4,027.1,000.0,036.7,030.1,20.2,0000.9,0005.07,0009.16,0004.47
2023-09-17 04:04:00,SystemResetWarning,0835.9,5.00,000.00,028.4,027.1,000.0,036.7,030.1,20.4,0000.1,0005.09,0008.84,0004.49
2023-09-17 04:05:00,SystemResetWarning,0835.9,5.00,000.00,028.4,027.2,000.0,036.7,030.1,20.2,0000.0,0005.10,0008.64,0004.49
2023-09-17 04:06:00,SystemResetWarning,0835.9,5.00,000.00,028.5,027.2,000.0,036.7,030.1,20.2,0000.0,0005.11,0008.68,0004.49
2023-09-17 04:07:00,SystemResetWarning,0835.8,5.00,000.00,028.5,027.2,000.0,036.7,030.1,20.2,0000.7,0005.16,0008.70,0004.50
2023-09-17 04:08:00,SystemResetWarning,0835.9,5.00,000.00,028.5,027.2,000.0,036.7,030.1,20.0,0000.1,0005.16,0008.55,0004.51
2023-09-17 04:09:00,SystemResetWarning,0835.8,5.02,000.00,028.5,027.2,000.0,036.8,030.2,20.1,0002.4,0005.17,0008.60,0004.53
2023-09-17 04:10:00,SystemResetWarning,0835.8,4.99,000.00,028.5,027.2,000.0,036.8,030.2,20.0,0000.4,0005.16,0008.48,0004.54
2023-09-17 04:11:00,SystemResetWarning,0835.8,4.99,000.00,028.5,027.3,000.0,036.8,030.2,20.0,0000.0,0005.16,0008.47,0004.55
2023-09-17 04:12:00,SystemResetWarning,0835.8,4.99,000.00,028.6,027.3,000.0,036.8,030.2,20.1,0000.0,0005.15,0008.58,0004.56
2023-09-17 04:13:00,SystemResetWarning,0835.8,4.99,000.00,028.6,027.3,000.0,036.8,030.2,19.9,0000.0,0005.14,0008.39,0004.56
2023-09-17 04:14:00,SystemResetWarning,0835.8,5.00,000.00,028.6,027.3,000.0,036.8,030.2,20.2,0000.0,0005.13,0008.36,0004.56
2023-09-17 04:15:00,SystemResetWarning,0835.8,5.01,000.00,028.6,027.3,000.0,036.8,030.2,19.9,0000.0,0005.11,0008.34,0004.55
2023-09-17 04:16:00,SystemResetWarning,0835.8,5.00,000.00,028.6,027.3,000.0,036.9,030.2,19.7,0000.0,0005.10,0008.36,0004.56
2023-09-17 04:17:00,SystemResetWarning,0835.8,5.01,000.00,028.6,027.3,000.0,036.9,030.3,19.7,0000.0,0005.10,0008.39,0004.56
2023-09-17 04:18:00,SystemResetWarning,0835.8,5.00,000.00,028.6,027.3,000.0,036.9,030.3,19.8,0000.0,0005.06,0008.29,0004.57
2023-09-17 04:19:00,SystemResetWarning,0835.8,4.99,000.00,028.7,027.3,000.0,036.9,030.3,19.8,0000.0,0005.04,0008.20,0004.57
2023-09-17 04:20:00,SystemResetWarning,0835.8,4.99,000.00,028.7,027.3,000.0,036.9,030.3,19.7,0000.0,0005.02,0008.11,0004.57
2023-09-17 04:21:00,SystemResetWarning,0835.7,5.00,000.00,028.7,027.3,000.0,036.9,030.3,19.8,0000.0,0005.02,0008.15,0004.57
2023-09-17 04:22:00,SystemResetWarning,0835.7,5.02,000.00,028.7,027.4,000.0,036.9,030.3,19.8,0000.0,0005.01,0008.23,0004.57
2023-09-17 04:23:00,SystemResetWarning,0835.7,5.01,000.00,028.7,027.4,000.0,037.0,030.3,20.0,0000.0,0005.01,0008.12,0004.57
2023-09-17 04:24:00,SystemResetWarning,0835.7,5.00,000.00,028.7,027.4,000.0,037.0,030.3,19.8,0000.0,0005.01,0008.25,0004.57
2023-09-17 04:25:00,SystemResetWarning,0835.7,5.00,000.00,028.7,027.4,000.0,037.0,030.3,19.7,0000.0,0005.01,0008.21,0004.58
2023-09-17 04:26:00,SystemResetWarning,0835.7,5.00,000.00,028.7,027.4,000.0,037.0,030.3,19.7,0000.1,0005.01,0008.17,0004.59
2023-09-17 04:27:00,SystemResetWarning,0835.8,4.98,000.00,028.7,026.3,000.0,037.0,030.0,19.7,-000.2,0005.00,0008.12,0004.59
2023-09-17 04:28:00,SystemResetWarning,0835.6,5.00,000.00,028.5,024.6,000.0,036.9,029.5,19.8,-000.1,0005.00,0008.08,0004.59
2023-09-17 04:29:00,SystemResetWarning,0835.6,5.00,000.00,028.4,024.2,000.0,036.8,029.5,19.9,0000.3,0005.06,0008.24,0004.60
2023-09-17 04:30:00,SystemResetWarning,0835.6,5.02,000.00,028.3,024.4,000.0,036.8,029.4,20.1,0001.0,0005.08,0008.33,0004.60
2023-09-17 04:31:00,SystemResetWarning,0835.6,5.00,000.00,028.2,024.7,000.0,036.8,029.4,20.1,0000.5,0005.09,0008.35,0004.61
2023-09-17 04:32:00,SystemResetWarning,0835.6,5.00,000.00,028.2,025.0,000.0,036.7,029.5,20.3,0000.4,0005.10,0008.39,0004.60
2023-09-17 04:33:00,SystemResetWarning,0835.6,5.00,000.00,028.2,025.4,000.0,036.7,029.5,20.4,0000.7,0005.11,0008.38,0004.61
2023-09-17 04:34:00,SystemResetWarning,0835.6,4.99,000.00,028.2,025.7,000.0,036.7,029.6,20.4,0000.7,0005.11,0008.47,0004.59
2023-09-17 04:35:00,SystemResetWarning,0835.6,5.00,000.00,028.1,025.9,000.0,036.7,029.6,20.5,0000.4,0005.08,0008.31,0004.57
2023-09-17 04:36:00,SystemResetWarning,0835.6,5.00,000.00,028.1,026.1,000.0,036.7,029.6,20.3,0000.0,0005.06,0008.21,0004.57
2023-09-17 04:37:00,SystemResetWarning,0835.6,5.00,000.00,028.2,026.3,000.0,036.6,029.7,20.3,0000.0,0005.06,0008.24,0004.56
2023-09-17 04:38:00,SystemResetWarning,0835.6,5.00,000.00,028.2,026.4,000.0,036.6,029.7,20.5,0000.0,0005.08,0008.34,0004.55
2023-09-17 04:39:00,SystemResetWarning,0835.6,5.00,000.00,028.2,026.5,000.0,036.6,029.7,20.2,0000.0,0005.07,0008.35,0004.54
2023-09-17 04:40:00,SystemResetWarning,0835.6,5.00,000.00,028.2,026.6,000.0,036.6,029.7,20.2,0000.0,0005.05,0008.35,0004.52
2023-09-17 04:41:00,SystemResetWarning,0835.6,5.00,000.00,028.2,026.7,000.0,036.6,029.8,20.3,0000.0,0005.05,0008.38,0004.52
2023-09-17 04:42:00,SystemResetWarning,0835.6,5.00,000.00,028.2,026.7,000.0,036.6,029.8,20.2,0000.4,0005.07,0008.76,0004.51
2023-09-17 04:43:00,SystemResetWarning,0835.7,5.00,000.00,028.2,026.8,000.0,036.6,029.8,20.3,0000.0,0005.05,0008.78,0004.50
2023-09-17 04:44:00,SystemResetWarning,0835.6,5.03,000.00,028.2,026.8,000.0,036.6,029.8,20.3,0001.7,0005.02,0008.66,0004.49
2023-09-17 04:45:00,SystemResetWarning,0835.6,5.00,000.00,028.2,026.8,000.0,036.6,029.9,20.2,0001.9,0004.97,0008.59,0004.48
2023-09-17 04:46:00,SystemResetWarning,0835.6,4.99,000.00,028.3,026.9,000.0,036.6,029.9,20.1,0000.0,0004.98,0008.79,0004.48
2023-09-17 04:47:00,SystemResetWarning,0835.6,4.99,000.00,028.3,026.9,000.0,036.6,029.9,20.2,0000.0,0004.98,0008.97,0004.48
2023-09-17 04:48:00,SystemResetWarning,0835.7,5.00,000.00,028.3,026.9,000.0,036.6,029.9,20.1,0000.0,0004.96,0009.23,0004.46
2023-09-17 04:49:00,SystemResetWarning,0835.6,5.00,000.00,028.3,026.9,000.0,036.6,029.9,20.2,0000.0,0004.96,0009.24,0004.46
2023-09-17 04:50:00,SystemResetWarning,0835.6,5.00,000.00,028.3,027.0,000.0,036.6,030.0,20.2,0000.5,0004.95,0009.14,0004.47
2023-09-17 04:51:00,SystemResetWarning,0835.6,5.00,000.00,028.3,027.0,000.0,036.6,030.0,20.1,0000.4,0004.94,0009.15,0004.47
2023-09-17 04:52:00,SystemResetWarning,0835.6,5.00,000.00,028.4,027.0,000.0,036.7,030.0,20.2,0000.0,0004.89,0009.06,0004.46
2023-09-17 04:53:00,SystemResetWarning,0835.6,5.00,000.00,028.4,027.0,000.0,036.7,030.0,20.1,0000.0,0004.85,0008.76,0004.45
2023-09-17 04:54:00,SystemResetWarning,0835.6,5.00,000.00,028.4,027.0,000.0,036.7,030.0,20.0,0000.0,0004.82,0008.59,0004.44
2023-09-17 04:55:00,SystemResetWarning,0835.6,4.99,000.00,028.4,027.0,000.0,036.7,030.0,20.1,0000.0,0004.84,0008.91,0004.45
2023-09-17 04:56:00,SystemResetWarning,0835.6,5.00,000.00,028.4,027.1,000.0,036.7,030.0,20.1,0000.0,0004.92,0008.92,0004.45
2023-09-17 04:57:00,SystemResetWarning,0835.6,5.00,000.00,028.4,027.1,000.0,036.7,030.1,19.9,0000.0,0004.97,0008.80,0004.46
2023-09-17 04:58:00,SystemResetWarning,0835.6,5.00,000.00,028.4,027.1,000.0,036.7,030.1,20.1,0000.0,0004.98,0008.74,0004.46
2023-09-17 04:59:00,SystemResetWarning,0835.6,5.00,000.00,028.5,027.1,000.0,036.7,030.1,20.1,0001.7,0004.98,0008.40,0004.46
